Regional Weather Roundup
Issued by NWS Northern Indiana

Home | Current Version | Previous Version | Text Only | Print | Product List | Glossary Off
Versions: 1 2 3 4 5 6 7 8 9 10 11 12 13 14 15 16 17 18 19 20 21 22 23 24 25 26 27 28 29 30 31 32 33 34 35 36 37 38 39 40 41 42 43 44 45 46 47 48 49 50

137
ASUS43 KIWX 201910
RWRIWX

KIWX WEATHER ROUNDUP
NATIONAL WEATHER SERVICE NORTHERN INDIANA
300 PM EDT THU JUL 20 2017

NOTE: "FAIR" INDICATES FEW OR NO CLOUDS BELOW 12,000 FEET WITH NO
SIGNIFICANT WEATHER AND/OR OBSTRUCTIONS TO VISIBILITY.

* THESE STATIONS ARE NOT UNDER NWS QUALITY CONTROL. THEY ALSO MAY NOT
  REPORT WEATHER SUCH AS PRECIPITATION OR FOG.

INZ001>027-202000-
NORTHERN INDIANA

CITY           SKY/WX    TMP DP  RH WIND       PRES   REMARKS
GARY*          PTSUNNY   90  72  55 W16G28    29.95F HX  96
VALPARAISO     SUNNY     89  75  63 W16       29.96F HX  99
MICHIGAN CITY* SUNNY     88  72  58 W12       29.96F
LAPORTE*       SUNNY     85  74  70 SW9G16    29.97F
KNOX*          SUNNY     84  63  48 W10G17    29.96S
SOUTH BEND     MOSUNNY   84  72  67 W13       29.97F
ELKHART*       MOSUNNY   84  72  65 W12       29.98F
GOSHEN         CLOUDY    84  70  62 W10       29.97
MONTICELLO*    PTSUNNY   85  76  73 SW13      29.97F
LOGANSPORT*    MOSUNNY   84  73  70 SW14      29.98F
ROCHESTER*     MOSUNNY   86  73  66 SW12      29.98S
WARSAW*        MOSUNNY   82  70  65 W9        29.97F
AUBURN*        MOSUNNY   81  68  65 CALM      30.00F
FORT WAYNE     CLOUDY    80  71  74 W10       30.01F
HUNTINGTON*    PTSUNNY   82  75  78 W8        30.00S
PERU/GRISSOM   MOSUNNY   86  75  69 SW15      29.97F HX  95
MARION*        SUNNY     82  73  74 W13       30.00F

$$
INZ028>050-202000-
CENTRAL INDIANA

CITY           SKY/WX    TMP DP  RH WIND       PRES   REMARKS
LAFAYETTE      MOSUNNY   84  72  67 SW9       29.98F
KOKOMO*        MOSUNNY   87  75  67 SW16      29.99F HX  96
MUNCIE*        MOSUNNY   84  73  69 W12G20    30.01F
INDIANAPOLIS   PTSUNNY   88  73  61 SW13      30.02S HX  95

$$
MIZ043>046-050>051-056>058-064>065-071>073-077>080-202000-
SOUTHWEST LOWER MICHIGAN

CITY           SKY/WX    TMP DP  RH WIND       PRES   REMARKS
BATTLE CREEK   CLOUDY    83  70  64 W9        29.99F
BENTON HARBOR  CLOUDY    80  69  69 W9        29.98S
COLDWATER*     CLOUDY    83  71  67 W8        29.99F
HILLSDALE*     CLOUDY    81  68  65 W3        30.00F
HOLLAND        CLOUDY    77  69  76 W6        29.99S
GRAND RAPIDS   PTSUNNY   81  70  69 W9        29.97F
KALAMAZOO      CLOUDY    84  68  58 NW14G20   29.98F
STURGIS*       CLOUDY    82  72  70 W6        29.99S
THREE RIVERS*  PTSUNNY   84  70  64 NW5       29.98F

$$
OHZ001>008-015>018-024>025-202000-
NORTHWEST OHIO

CITY           SKY/WX    TMP DP  RH WIND       PRES   REMARKS
WAUSEON*       CLOUDY    81  72  74 NW8       30.00R
DEFIANCE       CLOUDY   N/A N/A N/A SW9       30.00S
FINDLAY        CLOUDY    84  69  60 SW8       29.99S
TOLEDO EXPRESS CLOUDY    84  71  65 W12       29.98F
TOLEDO METCALF CLOUDY    85  70  60 SW6       29.99F
LIMA           CLOUDY    82  71  69 W15       30.01R

$$
AND FOR LAKE MICHIGAN COASTAL AND OPEN LAKE BUOY OBSERVATIONS

STATION/POSITION TEMP    WIND        PRES    VSBY  WAVE
                 AIR SEA DIR/SP/G                  HT/PER
                 (F)     (DEG/KT/KT) (MB)    (MI)  (FT/S)
CALUMET HARBOR    87     220/  8/ 14 1013.4F
MICHIGAN CITY     79     280/  8/  9   N/A
BURNS HARBOR      81     270/ 10/ 12 1014.6F
SAINT JOSEPH      76     330/  6/  7 1016.3
SOUTH LAKE BUOY   71 71   90/  4/  4 1014.7F         2/ 5
4 MI NW BRIDGMAN  74 74  360/  6/  8 1014.5          2/ 4
MICHIGAN CITY     76 75  350/  4/  4   N/A           1/ 3

$$
&&




USA.gov is the U.S. government's official web portal to all federal, state and local government web resources and services.